Wind_Speed
20 21 22 22 23 24 24 24 25 26 26 27 27 26 27 28 30 32 33 34 36 37 37 38 39 39 39 40 40 40 40 41 41 40 41 41 42 43 42 42 42 42 42 42
19 20 20 21 22 22 23 24 25 27 27 28 27 27 27 27 28 30 33 34 35 36 37 38 39 40 40 41 41 41 40 41 41 41 41 42 42 43 43 43 43 43 43 44
18 18 19 19 20 21 22 23 24 25 26 27 28 28 26 26 28 30 32 35 35 36 38 39 40 41 41 40 40 41 41 41 41 42 42 43 44 44 45 45 44 43 43 44
17 17 18 18 19 20 21 21 22 23 24 25 27 28 26 26 28 30 33 34 36 36 37 39 40 42 42 41 41 42 43 43 42 43 43 43 45 45 45 46 45 45 44 43
17 16 16 16 17 18 19 20 21 22 24 25 25 27 27 27 27 29 31 33 34 36 38 40 42 43 43 42 41 42 43 44 44 44 44 44 45 46 46 46 47 46 45 45
17 16 15 15 16 16 17 18 20 21 23 25 25 26 26 26 27 28 30 32 33 35 37 39 41 43 44 44 44 44 44 45 46 46 46 45 45 46 47 47 48 48 47 47
15 15 15 15 15 15 16 17 18 19 20 22 23 25 25 26 27 28 29 30 30 32 34 36 38 41 42 43 44 44 44 45 46 46 46 47 46 46 47 47 48 49 49 49
15 15 15 15 16 16 16 17 18 20 21 21 22 23 23 24 26 27 28 29 30 31 32 33 35 38 39 40 42 42 43 43 45 46 47 47 47 47 47 46 47 49 49 49
15 15 15 16 16 17 17 18 19 21 22 23 23 23 23 24 25 26 27 28 29 30 30 31 33 35 36 37 38 38 39 40 42 44 46 46 46 46 46 46 46 47 48 49
15 16 16 16 17 18 18 19 20 21 23 24 24 23 24 24 24 24 26 27 28 29 30 31 32 34 34 34 35 35 37 39 41 42 43 45 45 46 46 46 46 47 47 48
16 16 16 17 18 18 19 19 20 22 23 24 24 23 23 24 25 25 26 26 27 28 29 30 31 32 33 34 34 35 36 37 39 40 42 44 44 44 45 46 46 47 47 47
17 17 17 17 18 19 19 20 21 21 22 24 25 24 23 24 24 25 25 26 27 28 29 30 30 31 32 33 34 34 35 36 38 40 41 42 43 44 45 46 45 45 45 45
17 18 18 17 17 18 19 20 21 22 23 23 24 24 23 24 24 24 25 25 26 26 28 29 29 30 31 33 34 34 34 35 37 39 41 42 42 42 43 43 43 44 44 44
17 18 19 19 19 19 19 20 21 22 23 24 23 23 23 23 24 25 25 25 25 25 26 28 28 28 29 30 32 33 34 35 36 36 38 39 40 40 41 41 41 42 42 43
18 19 19 19 20 20 20 21 21 22 23 24 23 24 24 24 25 25 25 25 25 25 26 27 28 28 28 29 30 32 33 34 35 35 35 36 37 38 39 39 40 40 41 41
18 19 20 19 20 20 20 21 21 22 23 23 23 22 22 24 25 25 24 24 24 24 24 25 26 26 27 27 28 29 31 32 32 32 33 33 34 35 36 37 39 39 38 38
18 19 20 20 21 21 21 21 22 23 22 23 23 22 22 23 23 24 24 24 24 24 25 25 24 24 26 26 27 29 29 30 30 30 31 32 33 35 35 36 37 37 37 37
19 19 20 21 22 22 22 23 23 23 23 24 24 23 24 24 24 25 25 24 24 25 25 25 24 23 24 25 25 26 27 27 29 29 29 30 31 32 33 34 35 35 34 35
20 20 21 21 22 22 22 23 24 24 24 24 24 25 25 25 24 24 24 24 23 24 24 24 24 24 24 24 24 24 24 24 25 26 27 28 29 30 31 32 32 33 34 35
21 22 23 23 23 23 23 24 24 25 24 24 25 26 25 25 25 24 25 24 23 23 24 24 24 24 24 24 24 24 25 25 26 26 27 27 28 27 28 29 30 31 31 32
21 22 23 24 24 25 25 25 25 25 25 25 25 26 26 26 26 25 26 25 25 24 24 25 25 24 24 24 24 24 24 25 25 25 25 26 26 27 27 28 28 29 31 32
21 23 23 24 24 25 25 25 26 26 26 26 26 27 27 26 26 26 26 27 26 25 25 25 25 25 24 24 25 25 25 25 25 25 24 24 25 25 25 26 27 29 30 31
22 23 24 25 25 26 26 26 26 27 27 27 27 27 27 26 26 26 27 27 27 26 26 26 25 25 25 25 25 25 25 24 24 23 23 24 25 25 25 26 26 27 28 28
22 23 25 26 26 26 26 27 27 27 27 27 27 26 26 26 26 27 27 27 27 27 27 26 25 24 24 24 24 25 25 25 24 24 24 24 24 24 24 25 25 26 26 27
23 25 26 26 26 26 26 26 26 26 27 26 26 26 27 26 26 26 26 26 26 26 26 26 25 24 24 24 25 25 24 24 24 24 23 23 23 24 24 25 26 26 26 26
23 25 26 26 26 26 26 25 26 26 26 26 26 26 27 26 26 26 26 26 26 26 25 25 24 24 24 24 24 24 24 24 24 24 23 24 25 25 25 26 26 26 26 26
Wind_Direction
273 269 266 265 264 264 263 261 259 256 254 253 254 253 255 255 254 252 251 250 250 249 250 250 249 249 249 248 250 250 251 251 252 252 252 253 252 251 250 250 252 254 255 258
275 272 269 265 265 263 262 260 259 256 254 254 255 256 258 259 258 256 255 252 254 253 253 251 250 248 248 249 250 250 251 251 252 253 252 252 253 252 251 250 253 255 257 257
279 276 274 270 266 262 262 262 259 258 256 255 258 259 259 259 258 258 257 257 258 258 255 252 249 248 249 252 251 251 250 251 252 252 253 252 251 252 252 252 253 255 257 259
279 278 276 274 272 266 264 262 262 262 260 259 261 265 261 261 260 259 259 259 261 259 257 255 253 250 251 253 253 252 251 251 253 252 253 254 252 252 253 252 253 255 256 258
279 278 277 275 273 269 267 265 264 264 263 265 266 269 266 265 263 262 263 263 262 261 258 257 254 252 252 253 253 253 253 253 254 254 254 254 253 253 253 253 253 255 256 258
280 278 276 275 275 275 272 269 269 269 269 270 270 272 271 268 269 269 269 267 267 264 261 259 257 254 254 254 255 254 254 254 254 255 256 255 254 254 254 254 255 255 257 259
280 278 277 276 277 277 278 277 276 275 274 274 274 275 275 274 274 274 275 274 273 269 265 262 260 258 257 256 257 256 255 255 255 255 255 255 254 255 255 255 256 256 257 258
279 279 279 279 280 283 284 282 281 279 280 279 280 281 280 280 279 278 276 276 275 274 271 267 263 260 258 258 259 258 258 256 255 254 253 254 253 254 254 255 256 256 256 257
280 280 281 281 281 283 284 284 283 282 281 283 284 287 286 284 283 281 280 280 279 278 274 271 267 262 259 259 259 258 258 256 256 255 254 254 254 254 255 255 257 258 258 258
282 282 282 282 281 282 284 286 286 285 287 287 288 290 290 286 285 284 284 285 283 281 277 274 271 266 262 261 260 259 258 258 259 259 257 256 255 256 256 256 259 260 260 259
284 284 284 284 283 283 284 286 288 289 288 289 291 293 293 290 288 287 285 285 283 283 282 280 275 270 266 263 262 261 261 261 261 260 259 257 256 256 257 259 261 261 261 261
286 287 287 286 286 285 285 286 288 290 291 291 291 292 292 291 290 288 286 284 284 283 283 281 277 273 270 267 266 265 264 263 262 261 259 257 256 257 258 259 261 262 262 262
285 286 288 288 287 287 290 290 289 289 289 290 291 294 293 291 290 290 287 286 285 284 283 282 280 276 272 270 268 267 267 267 266 264 260 257 257 257 258 260 260 261 262 262
286 286 287 289 288 290 291 292 290 289 291 290 292 293 292 289 288 288 288 287 287 285 285 284 283 281 276 273 270 268 267 268 267 266 263 259 258 257 259 260 261 261 261 260
287 287 287 289 289 289 291 292 291 291 292 293 293 291 291 288 287 287 287 287 290 288 286 285 283 282 280 278 275 271 269 268 268 266 263 260 258 257 258 259 261 261 261 260
289 289 288 288 289 290 291 292 292 292 292 292 292 291 290 289 288 288 290 291 293 289 288 288 285 282 280 279 277 275 272 271 268 264 263 261 258 258 259 260 260 259 259 260
290 291 289 288 288 289 292 293 292 292 292 293 293 294 292 291 290 290 290 291 293 292 289 291 290 286 284 281 278 276 273 270 268 267 266 263 261 259 260 261 260 258 259 260
291 290 289 289 289 290 293 293 292 293 292 292 293 295 294 293 292 293 292 292 292 293 292 288 289 288 286 285 283 279 275 271 269 269 269 266 264 262 262 262 259 258 258 260
290 291 290 290 290 292 293 294 294 294 294 293 293 294 296 295 293 293 293 293 293 296 295 293 292 291 289 287 285 282 278 277 275 273 272 268 267 264 263 262 260 259 260 260
290 291 292 292 291 293 295 294 297 296 295 293 294 295 294 293 292 292 292 294 294 295 295 294 293 292 292 289 286 283 282 281 279 277 274 271 269 267 265 263 262 262 263 263
291 291 292 293 293 294 296 296 297 298 297 295 295 296 295 292 291 291 291 293 293 293 293 294 293 291 291 289 287 285 284 282 280 278 275 273 270 269 269 269 266 264 264 265
294 294 294 293 294 297 297 297 297 298 297 295 294 295 295 293 292 292 291 291 292 291 291 293 292 290 288 287 286 286 286 284 283 280 277 274 272 273 274 271 269 267 267 267
294 295 294 294 295 296 297 296 296 297 297 296 293 293 292 291 291 291 289 288 289 289 290 291 291 289 287 286 287 287 287 286 284 282 278 277 278 278 277 275 273 271 271 271
292 293 293 293 295 295 295 295 295 295 296 296 296 294 292 290 289 290 289 288 288 289 290 290 289 288 287 287 287 287 286 285 284 285 283 282 281 280 278 276 275 275 274 273
292 293 293 294 295 294 294 294 295 294 295 296 296 295 294 293 292 290 290 290 290 289 289 289 288 287 287 287 287 287 286 286 286 287 285 283 283 284 283 281 280 279 276 274
292 293 294 295 295 296 296 294 293 293 294 295 295 296 294 293 293 292 291 290 290 290 290 289 287 287 286 286 287 287 288 288 288 287 285 284 284 283 283 282 281 280 277 273
Height
5693 5694 5693 5693 5692 5692 5692 5692 5693 5694 5694 5694 5695 5697 5699 5699 5700 5702 5703 5704 5706 5707 5709 5710 5712 5714 5716 5718 5720 5722 5724 5725 5726 5728 5729 5731 5733 5735 5737 5739 5741 5743 5745 5747
5689 5688 5687 5686 5686 5685 5685 5686 5687 5688 5688 5688 5689 5691 5692 5693 5693 5694 5695 5696 5697 5698 5699 5700 5701 5703 5705 5707 5709 5711 5713 5714 5716 5718 5720 5721 5723 5725 5727 5729 5731 5733 5735 5737
5683 5683 5681 5681 5680 5679 5679 5680 5680 5681 5681 5682 5683 5684 5686 5686 5685 5685 5686 5687 5688 5689 5690 5690 5691 5693 5695 5696 5698 5700 5702 5703 5705 5707 5709 5711 5712 5714 5716 5719 5721 5723 5725 5726
5678 5677 5677 5676 5675 5674 5674 5674 5674 5675 5675 5675 5676 5676 5679 5678 5677 5677 5677 5678 5678 5679 5679 5680 5681 5682 5684 5686 5687 5689 5690 5692 5694 5696 5698 5700 5702 5704 5707 5709 5711 5712 5713 5715
5673 5673 5672 5671 5671 5670 5669 5669 5669 5669 5669 5669 5669 5669 5672 5670 5670 5670 5669 5669 5668 5668 5669 5669 5670 5671 5673 5675 5676 5678 5679 5681 5682 5685 5687 5688 5690 5693 5695 5697 5699 5701 5702 5704
5669 5668 5668 5667 5666 5665 5665 5665 5664 5664 5664 5664 5664 5663 5664 5663 5662 5661 5661 5660 5658 5658 5657 5658 5658 5659 5661 5663 5664 5665 5667 5669 5671 5673 5675 5677 5679 5681 5683 5685 5688 5689 5691 5692
5665 5664 5663 5663 5662 5662 5661 5661 5660 5658 5658 5658 5657 5656 5657 5656 5654 5653 5652 5650 5649 5647 5647 5647 5647 5647 5648 5649 5651 5652 5655 5657 5658 5660 5662 5665 5667 5669 5671 5673 5675 5677 5679 5680
5660 5660 5659 5658 5658 5657 5656 5656 5655 5654 5652 5652 5651 5650 5651 5649 5647 5645 5643 5641 5640 5638 5637 5636 5636 5636 5636 5637 5638 5640 5642 5644 5645 5647 5650 5652 5654 5657 5659 5661 5662 5664 5666 5668
5655 5656 5655 5654 5653 5653 5651 5650 5650 5648 5646 5645 5645 5645 5644 5642 5639 5638 5636 5634 5632 5630 5628 5627 5626 5626 5626 5626 5627 5628 5629 5631 5632 5634 5636 5638 5641 5643 5645 5648 5649 5651 5653 5654
5651 5651 5651 5650 5649 5648 5647 5646 5645 5643 5640 5639 5639 5638 5637 5634 5632 5630 5628 5626 5624 5622 5620 5618 5617 5616 5616 5616 5616 5617 5618 5619 5620 5622 5624 5626 5629 5631 5633 5635 5637 5638 5640 5641
5646 5646 5646 5645 5644 5643 5642 5641 5639 5637 5635 5634 5632 5634 5630 5627 5625 5623 5621 5618 5616 5613 5611 5609 5608 5607 5606 5606 5606 5607 5607 5608 5609 5610 5612 5614 5617 5619 5621 5623 5625 5626 5627 5628
5642 5642 5641 5640 5639 5637 5636 5635 5633 5632 5630 5628 5626 5629 5624 5621 5618 5616 5614 5611 5608 5606 5604 5602 5600 5598 5598 5598 5598 5598 5598 5598 5599 5599 5600 5602 5605 5606 5609 5611 5612 5613 5615 5616
5637 5637 5636 5635 5636 5633 5631 5629 5627 5626 5624 5621 5619 5622 5617 5614 5611 5609 5606 5604 5601 5598 5596 5594 5592 5590 5589 5589 5588 5588 5589 5589 5588 5588 5588 5590 5593 5594 5596 5598 5599 5601 5602 5603
5632 5631 5631 5631 5628 5627 5626 5624 5622 5619 5617 5615 5614 5613 5611 5608 5604 5602 5599 5597 5594 5592 5589 5587 5584 5582 5581 5580 5579 5579 5579 5578 5578 5577 5577 5579 5580 5582 5584 5586 5587 5588 5590 5591
5627 5626 5625 5624 5622 5621 5620 5618 5616 5613 5611 5609 5608 5605 5604 5601 5598 5596 5593 5590 5588 5585 5582 5580 5577 5575 5573 5572 5571 5570 5569 5569 5568 5567 5568 5568 5570 5572 5573 5574 5576 5577 5578 5579
5621 5620 5619 5619 5617 5615 5614 5612 5610 5608 5605 5602 5600 5599 5597 5593 5591 5589 5586 5583 5581 5578 5575 5572 5569 5567 5565 5564 5563 5562 5561 5560 5559 5559 5559 5559 5560 5562 5563 5564 5565 5566 5567 5568
5616 5615 5614 5613 5611 5609 5608 5607 5604 5601 5599 5596 5594 5593 5589 5587 5584 5582 5579 5577 5574 5571 5568 5565 5562 5560 5558 5556 5555 5554 5553 5552 5551 5551 5551 5551 5552 5553 5554 5554 5555 5556 5558 5559
5611 5609 5607 5606 5605 5603 5604 5599 5597 5595 5592 5590 5587 5585 5582 5580 5577 5574 5572 5569 5566 5564 5561 5558 5555 5553 5551 5549 5547 5545 5544 5544 5544 5543 5543 5543 5543 5543 5544 5545 5545 5547 5548 5549
5605 5603 5601 5600 5597 5596 5596 5593 5590 5587 5586 5583 5580 5578 5575 5572 5570 5568 5565 5562 5559 5557 5554 5551 5548 5546 5544 5542 5540 5538 5537 5536 5536 5535 5534 5534 5534 5534 5535 5535 5536 5537 5539 5540
5599 5597 5596 5593 5590 5589 5590 5586 5582 5581 5579 5576 5573 5570 5568 5565 5563 5562 5558 5555 5552 5549 5546 5544 5542 5540 5537 5535 5533 5532 5531 5530 5528 5527 5526 5526 5526 5526 5526 5527 5527 5528 5529 5529
5593 5591 5589 5586 5583 5582 5582 5578 5576 5575 5572 5569 5565 5562 5560 5557 5555 5553 5550 5547 5545 5542 5540 5537 5535 5533 5531 5529 5527 5526 5524 5523 5521 5520 5519 5518 5518 5518 5518 5518 5519 5519 5520 5520
5587 5585 5583 5580 5577 5578 5574 5571 5569 5567 5564 5561 5558 5555 5552 5550 5547 5544 5542 5540 5538 5535 5533 5530 5528 5526 5524 5522 5521 5519 5518 5515 5514 5512 5511 5511 5511 5510 5510 5510 5510 5510 5510 5510
5581 5579 5576 5574 5573 5570 5566 5563 5561 5559 5556 5553 5550 5548 5545 5542 5540 5538 5535 5533 5531 5528 5525 5523 5521 5519 5517 5515 5514 5512 5511 5509 5507 5506 5505 5504 5504 5503 5502 5502 5502 5502 5501 5501
5574 5572 5569 5567 5565 5562 5559 5556 5554 5551 5548 5545 5543 5540 5537 5535 5533 5530 5528 5525 5523 5520 5518 5516 5514 5512 5510 5508 5507 5505 5503 5502 5500 5499 5498 5497 5496 5495 5494 5494 5494 5493 5493 5492
5567 5564 5561 5559 5558 5555 5553 5549 5547 5544 5541 5538 5535 5533 5530 5527 5525 5523 5520 5518 5515 5513 5511 5508 5507 5505 5503 5502 5500 5498 5497 5495 5493 5492 5491 5490 5489 5488 5487 5486 5485 5484 5483 5483
5560 5557 5554 5552 5550 5547 5545 5542 5539 5536 5533 5531 5528 5525 5523 5520 5518 5515 5513 5511 5508 5506 5503 5501 5500 5498 5497 5495 5494 5492 5490 5488 5486 5485 5484 5483 5482 5480 5479 5478 5477 5475 5475 5474